This demonstration page uses our WeatherBlox Daily Observations layout. Learn more.

Left ArrowRight Arrow

Hourly Observations for July 12, 2020

Temp ( °F °C ) Dew Point ( °F °C ) Humidity (%) Winds ( mph kmh ) Pressure ( in mb ) Visibility ( mi km ) Precip ( " mm )
12:51 am 00:51 Clear 86 30 54 12.2 33 33 NW 12 19 29.76 1008 10 16.0934 0 0
1:51 am 01:51 Clear 86 30 52 11.1 31 31 WNW 9 15 29.75 1007 10 16.0934 0 0
2:51 am 02:51 Clear 83 28.3 53 11.7 36 36 NW 9 15 29.74 1007 10 16.0934 0 0
3:51 am 03:51 Clear 87 30.6 51 10.6 29 29 NW 8 13 29.74 1007 10 16.0934 0 0
4:51 am 04:51 Clear 79 26.1 50 10 36 36 Calm 29.78 1008 10 16.0934 0 0
5:51 am 05:51 Sunny 78 25.6 51 10.6 39 39 SSE 7 11 29.8 1009 10 16.0934 0 0
6:51 am 06:51 Sunny 84 28.9 52 11.1 33 33 NE 3 6 29.83 1010 10 16.0934 0 0
7:51 am 07:51 Sunny 89 31.7 52 11.1 28 28 Calm 29.83 1010 10 16.0934 0 0
8:51 am 08:51 Sunny 92 33.3 52 11.1 26 26 Calm 29.82 1010 10 16.0934 0 0
9:51 am 09:51 Sunny 97 36.1 53 11.7 23 23 Calm 29.79 1009 10 16.0934 0 0
10:51 am 10:51 Sunny 103 39.4 51 10.6 18 18 VRB 6 9 29.77 1008 10 16.0934 0 0
11:51 am 11:51 Sunny 104 40 49 9.4 16 16 VRB 5 7 29.75 1007 10 16.0934 0 0
12:51 pm 12:51 Sunny 108 42.2 47 8.3 13 13 undefined N/A 29.7 1006 10 16.0934 0 0
1:51 pm 13:51 Sunny 111 43.9 48 8.9 12 12 WNW 15 24 29.67 1005 10 16.0934 0 0
2:51 pm 14:51 Sunny 108 42.2 42 5.6 11 11 W 13 20 29.65 1004 10 16.0934 0 0
3:51 pm 15:51 Sunny 110 43.3 40 4.4 9 9 WNW 9 15 29.63 1003 10 16.0934 0 0
4:51 pm 16:51 Sunny 108 42.2 45 7.2 12 12 W 18 30 29.62 1003 10 16.0934 0 0
5:51 pm 17:51 Sunny 107 41.7 43 6.1 11 11 WNW 13 20 29.62 1003 10 16.0934 0 0
6:51 pm 18:51 Sunny 101 38.3 49 9.4 17 17 WNW 18 30 29.63 1004 10 16.0934 0 0
7:51 pm 19:51 Clear 96 35.6 49 9.4 20 20 W 17 28 29.66 1005 10 16.0934 0 0
8:51 pm 20:51 Clear 95 35 48 8.9 20 20 WNW 13 20 29.68 1005 10 16.0934 0 0
9:51 pm 21:51 Clear 92 33.3 47 8.3 21 21 NW 6 9 29.7 1006 10 16.0934 0 0
10:51 pm 22:51 Clear 92 33.3 46 7.8 21 21 N 6 9 29.69 1006 10 16.0934 0 0
11:51 pm 23:51 Clear 92 33.3 47 8.3 21 21 SSW 9 15 29.71 1006 10 16.0934 0 0

Powered by AerisWeather